Regional Weather Roundup
Issued by NWS Midland/Odessa, TX

Skip options and go directly to product.
Home | Oldest Version | Previous Version | Current Version | All | Graphics & Text | Save Text | Print | Product List | Glossary On

Skip product version selection by date and time.   
540
ASUS44 KMAF 230210
RWRMAF
MIDLAND AREA WEATHER ROUNDUP
NATIONAL WEATHER SERVICE MIDLAND TX
900 PM CDT FRI MAY 22 2015

...IN SOUTHWEST TEXAS AND SOUTHEAST NEW MEXICO...

CITY           SKY/WX    TMP DP  RH WIND       PRES   REMARKS
ALPINE         PTCLDY    68  61  78 E9        30.09R
ANDREWS        CLOUDY    65  65 100 E8        30.00S FOG
ARTESIA        CLOUDY    72  61  68 SE23      29.96R
BIG SPRING     CLOUDY    76  66  71 E13       30.02F
CARLSBAD       MOCLDY    73  63  70 SE8       29.94R
DRYDEN           N/A     77  68  73 E12G23    29.96R
FORT STOCKTON  CLOUDY    71  63  75 SE16G26   29.99R
GUAD PASS      MOCLDY    64  58  80 NE30G38   30.04R
HOBBS          CLOUDY    64  64 100 E15       30.01S FOG
MARFA          PTCLDY    66  61  82 NE9       30.05R
MIDLAND AIRPK  CLOUDY    76  64  67 SE14      30.00R
MIDLAND INTL   CLOUDY    75  64  68 SE17      29.98F
ODESSA         CLOUDY    75  62  64 SE22G28   29.97F
PECOS          MOCLDY    72  63  73 E20G25    29.91F
PRESIDIO       FAIR      86  57  37 MISG      29.82R
SEMINOLE       CLOUDY    64  63  97 E8        30.02S FOG
SNYDER         CLOUDY    65  64  97 NE10      30.04R FOG
WINK           PTCLDY    75  62  64 SE22G30   29.93R
$$
...OTHER STATIONS IN TEXAS...

CITY           SKY/WX    TMP DP  RH WIND       PRES   REMARKS
ABILENE        PTCLDY    70  66  87 SE12      30.04R
AMARILLO       CLOUDY    59  57  93 SE20      30.04S
AUSTIN         CLOUDY    76  72  87 SE7       30.05R
BROWNSVILLE    MOCLDY    80  75  84 SE12      29.97S
CORPUS CHRISTI CLOUDY    80  75  84 SE8       30.00R
DALLAS FTW     LGT RAIN  67  65  93 E3        30.08S
DEL RIO        CLOUDY    80  70  71 SE9       29.95R
EL PASO        CLOUDY    86   6   5 SW17G25   29.85R
HOUSTON INT    MOCLDY    74  69  85 E8        30.10R
LUBBOCK        FOG       60  60 100 SE12      30.05R VSB 1/2
SAN ANGELO     MOCLDY    73  66  78 SE6       30.01R
SAN ANTONIO    CLOUDY    78  73  84 SE12      30.04R
WACO           CLOUDY    73  68  84 SE6       30.07R
WICHITA FALLS  NOT AVBL
$$
...OTHER LOCATIONS IN NEW MEXICO...

CITY           SKY/WX    TMP DP  RH WIND       PRES   REMARKS
ALAMAGORDO     CLEAR     77  18  10 S8        29.88S
ALBUQUERQUE    PTCLDY    71  33  24 S22G36    29.91R
CANNON AFB     NOT AVBL
CLOVIS         CLOUDY    61  55  82 SE14G20   30.05R
HOLLOMAN AFB   CLEAR     78  29  16 SW7       29.86R
ROSWELL        CLOUDY    71  58  63 SE22G31   29.95R
RUIDOSO        CLEAR     57  50  77 SE13      30.10R
SANTA FE       PTCLDY    63  34  33 S17G23    29.98R
TRUTH OR CONSE CLEAR     76  14   9 SW20G29   29.88R
TUCUMCARI      MOCLDY    65  55  70 S15       29.98R
$$

USA.gov is the U.S. government's official web portal to all federal, state and local government web resources and services.